Theta_e
320 320 319 320 321 321 319 318 317 315 314 312 310 308 308 307 309 308 310 314 316 318 318 316 314 311 311 312 311 310 308 307 306 306 305 305 306 306 307 308 308 309 310 311 313 315 316 321 325 327 331 333 333 333 331 330 331 331 333 333 333 332 332 331 331 331 331 330 330 330 331 329 328 327 326 325 324 325 326 327 327 328 328 327 327
320 320 319 320 321 321 320 319 318 316 314 312 311 310 308 308 308 308 310 313 314 316 317 316 313 310 310 311 310 310 309 307 307 306 306 305 305 305 305 304 304 306 308 309 311 312 313 315 317 319 324 328 331 332 332 332 332 332 332 332 332 332 332 332 330 330 331 331 330 331 331 329 327 326 326 326 325 324 325 327 327 327 327 327 327
320 319 320 321 320 321 321 320 319 317 314 313 312 310 309 309 308 308 310 311 312 314 315 313 311 310 310 310 309 310 309 308 308 307 307 306 306 305 305 305 305 305 306 308 309 313 314 313 314 317 321 324 326 329 331 332 332 332 332 331 331 331 332 332 331 331 331 331 331 332 331 330 327 327 326 326 327 326 325 326 326 326 326 327 327
319 319 320 321 321 322 322 320 320 319 316 313 312 311 310 310 309 308 310 311 312 313 313 311 310 310 310 309 310 310 310 309 308 308 307 307 306 306 305 304 305 305 306 307 309 312 314 315 315 316 320 323 324 326 328 329 329 329 330 331 331 332 332 332 332 332 331 331 331 332 331 331 330 328 328 327 328 327 325 325 325 324 324 326 327
319 320 320 321 321 321 322 321 320 320 317 314 312 312 311 311 311 310 310 312 312 312 311 311 311 310 310 310 312 312 311 310 309 308 307 307 306 306 305 304 303 304 305 305 308 310 312 314 316 316 317 320 323 324 325 326 326 326 325 326 327 329 330 331 332 332 331 332 333 332 332 331 331 330 329 329 329 328 327 327 326 324 323 323 325
318 319 320 321 321 321 322 322 321 320 318 315 313 312 312 312 311 311 310 312 313 312 311 312 312 311 311 311 312 312 312 312 310 308 308 307 306 306 306 305 304 304 304 304 305 307 308 310 314 315 315 316 319 321 322 324 325 325 325 324 323 322 323 324 328 330 331 332 332 332 332 331 331 330 329 329 329 329 329 328 327 327 325 324 325
318 318 320 321 321 322 323 322 321 320 319 318 315 313 313 312 311 311 311 312 313 313 312 313 312 312 311 312 313 313 314 314 311 308 308 308 307 307 306 306 305 305 305 303 303 304 306 308 309 312 313 313 314 316 318 320 323 325 325 325 324 323 322 321 321 324 327 330 331 332 332 332 332 331 330 330 330 329 329 329 329 328 327 327 327
317 318 320 321 322 322 322 322 321 319 319 320 317 315 313 313 312 311 311 312 313 313 313 313 312 312 312 312 313 314 314 313 311 309 309 308 308 307 307 306 306 306 305 305 304 303 304 305 306 307 308 309 310 311 312 314 318 320 323 325 325 325 325 323 321 320 321 324 326 328 331 332 332 332 331 330 329 330 330 329 329 329 328 328 327
317 318 319 321 321 321 321 321 320 320 320 320 319 317 315 313 313 312 311 312 313 313 313 313 313 313 312 312 313 313 312 312 311 310 309 309 308 307 307 307 306 306 306 306 305 305 304 304 304 304 305 305 306 307 308 309 310 313 317 321 323 324 325 325 325 324 323 322 322 323 324 327 330 332 332 331 330 329 329 329 329 329 329 328 328
318 317 318 320 320 321 321 320 320 320 320 321 321 320 318 316 315 314 312 312 312 312 313 314 314 313 313 313 313 312 313 313 311 310 310 309 308 308 307 307 307 307 306 306 306 306 306 305 305 305 305 304 304 305 305 306 307 309 311 315 318 321 323 323 324 325 325 324 324 323 321 322 325 328 330 331 332 330 330 329 328 328 328 329 329
318 318 319 319 320 320 321 321 321 321 321 321 321 321 321 319 318 317 315 313 312 312 312 314 314 313 312 313 313 313 313 313 312 311 310 309 308 308 308 307 307 307 306 306 306 306 306 306 306 305 305 305 305 304 304 304 305 306 307 309 312 316 319 320 322 323 325 325 326 326 325 323 324 324 323 326 331 331 330 329 328 328 328 329 330
318 317 319 320 321 321 321 322 322 322 322 322 322 322 322 322 320 320 318 315 313 312 312 314 315 314 313 313 314 313 313 313 312 311 309 309 309 308 307 307 307 307 307 306 307 307 306 306 306 305 305 305 304 305 304 304 304 304 305 306 308 311 314 317 318 320 322 322 323 325 326 325 325 324 322 324 328 330 329 329 328 328 327 328 329
317 317 318 320 322 323 322 323 323 323 323 322 322 322 323 323 322 321 320 317 314 313 311 313 315 314 313 313 314 313 313 313 312 310 309 309 309 308 307 308 308 307 306 307 306 307 306 306 305 305 305 305 304 304 304 304 303 303 303 303 305 307 311 314 314 315 317 319 320 322 324 325 325 326 325 325 326 328 328 328 327 327 327 327 327
317 317 318 319 320 323 323 323 323 323 323 323 323 323 323 323 323 322 321 318 315 313 312 312 313 314 313 313 314 313 313 313 312 310 309 309 309 308 308 308 307 307 306 306 306 306 306 306 305 305 305 304 304 304 303 302 302 302 302 302 303 304 308 312 313 313 315 317 318 319 321 323 325 326 326 326 326 326 327 327 326 328 328 328 328
318 318 319 319 319 321 322 322 322 322 323 323 323 323 323 323 324 323 322 320 316 314 313 312 312 313 314 313 313 313 313 313 313 312 310 309 309 308 308 308 307 306 306 306 306 306 306 306 305 305 304 304 304 303 302 302 302 302 302 302 302 302 303 308 311 312 313 315 316 317 319 321 323 324 326 326 327 327 327 327 327 329 329 328 327
318 318 319 320 319 320 322 322 321 321 322 323 322 322 322 323 323 323 322 319 316 315 314 313 312 312 313 314 313 312 312 312 312 312 311 310 309 308 308 308 307 307 306 306 306 306 306 306 305 304 304 304 304 303 303 303 303 303 302 302 301 301 302 304 307 309 311 313 315 316 317 318 319 320 323 324 326 327 328 328 329 329 328 328 328
316 318 319 320 320 320 321 321 321 321 322 322 322 321 321 322 323 323 322 320 317 315 314 312 312 313 313 313 312 311 310 311 310 311 311 310 310 309 309 308 307 307 306 306 306 306 306 305 305 304 304 304 304 303 303 303 304 304 303 303 302 301 302 303 304 306 309 311 313 315 317 317 316 316 318 320 323 325 326 327 328 329 329 328 328
316 315 316 319 320 320 321 321 321 321 321 321 321 321 321 321 321 320 321 320 317 314 313 313 312 313 313 312 311 310 310 310 310 310 311 311 310 310 309 309 307 307 307 306 306 306 306 305 304 304 304 304 304 304 303 303 305 306 306 305 305 304 303 302 302 304 307 310 312 315 317 317 315 315 315 316 318 321 323 325 326 328 328 328 328
315 314 316 318 320 320 321 321 321 321 321 321 321 321 320 320 320 319 319 317 315 314 313 313 313 313 312 311 310 310 310 309 310 310 310 310 310 310 309 309 308 307 307 307 306 306 305 305 304 304 304 304 304 304 303 303 305 307 308 308 308 307 306 304 302 302 305 310 313 314 315 317 317 317 316 316 316 317 319 322 324 326 327 328 328
315 314 316 318 319 320 320 320 321 320 321 320 320 320 320 320 320 320 319 318 316 315 314 314 313 312 311 310 310 310 310 310 309 309 310 310 310 310 309 308 308 307 307 306 306 305 305 304 304 304 304 304 304 304 304 304 304 305 307 309 309 309 309 307 306 304 304 308 312 314 314 316 318 319 318 317 317 316 316 318 319 322 325 327 328
316 315 316 317 319 320 320 320 320 320 320 321 320 320 320 320 320 320 320 319 318 317 314 314 312 311 310 310 310 310 310 310 310 309 309 310 310 309 309 309 308 307 307 306 306 305 304 304 303 304 304 304 304 304 304 304 304 304 305 307 308 308 309 308 308 308 306 306 311 314 315 315 317 319 319 319 319 318 318 318 317 318 320 323 325
316 315 315 316 317 318 320 320 321 320 321 320 321 321 320 320 320 321 321 320 319 317 314 312 312 311 310 310 310 310 310 310 310 310 310 309 309 309 309 308 308 307 306 306 305 304 303 303 303 303 304 303 304 304 304 304 305 305 305 306 307 308 308 308 308 308 308 307 309 311 314 314 316 318 318 318 319 319 320 320 319 319 318 319 320
315 315 315 315 316 317 319 320 320 320 321 321 321 320 320 321 321 321 322 321 319 315 312 312 312 311 310 310 310 310 310 310 309 309 309 309 309 309 309 308 307 307 306 305 304 303 303 303 303 303 304 304 303 303 304 305 305 305 305 305 306 307 307 308 308 308 308 308 308 308 310 311 313 316 318 318 318 319 319 320 320 321 320 319 319
314 314 315 315 315 316 319 321 321 321 321 321 320 321 321 322 322 321 322 321 317 313 312 312 312 312 311 310 310 310 309 309 309 309 309 309 309 309 309 308 307 306 305 304 303 303 303 303 303 303 303 303 303 304 305 305 305 305 305 305 306 306 307 307 308 308 308 308 308 308 308 308 309 311 315 317 318 318 319 319 320 320 321 320 320
311 312 313 314 314 315 317 319 320 321 321 321 321 320 321 321 320 319 320 318 314 312 312 313 312 312 311 311 310 310 310 310 310 310 309 309 309 309 308 308 306 305 304 303 303 303 303 303 304 304 303 303 304 305 305 305 305 305 305 305 305 306 307 307 307 308 308 308 308 308 308 308 308 308 310 313 317 318 318 318 319 320 321 320 320
309 309 310 311 313 313 314 315 316 317 319 320 319 319 320 320 320 318 318 316 313 313 313 312 312 312 312 312 311 310 310 310 310 310 310 310 309 309 308 306 305 304 303 303 303 303 303 304 304 303 303 303 304 304 305 305 305 305 305 304 305 305 306 306 306 307 307 308 308 308 308 308 308 308 308 309 312 315 317 317 317 319 320 320 320
308 309 309 309 310 312 312 314 314 314 316 320 320 319 320 321 320 319 318 316 314 314 313 312 312 312 312 312 311 311 310 311 311 311 310 310 309 308 307 305 304 303 303 303 303 303 303 303 303 302 302 303 304 304 304 304 304 305 305 305 305 305 305 305 306 306 307 307 307 308 308 308 308 309 309 308 308 311 314 316 317 317 318 319 320
309 309 310 309 309 310 311 313 314 314 316 321 324 323 322 322 322 320 319 316 314 313 313 313 313 313 312 312 311 311 312 312 311 311 310 310 309 307 306 304 303 303 303 304 304 303 303 303 302 302 303 304 304 304 304 304 304 305 305 305 305 305 304 305 305 305 306 306 307 307 307 308 308 308 309 309 309 309 310 313 316 317 317 317 318
309 309 309 310 310 311 312 312 314 314 314 318 322 323 322 321 321 319 317 315 314 313 313 314 314 313 313 312 312 312 312 312 312 311 310 309 308 307 305 303 303 304 304 304 304 304 303 303 303 302 302 302 302 302 302 302 303 304 304 304 304 304 304 304 304 304 305 305 306 306 307 307 307 308 308 309 309 309 309 310 313 315 316 317 317
310 310 310 310 310 311 312 313 315 315 314 314 317 320 321 320 320 318 317 316 315 314 313 314 314 314 313 313 313 313 313 313 312 311 310 309 307 305 304 303 304 304 304 304 304 304 303 303 302 302 302 302 301 301 300 300 300 301 302 303 303 303 304 304 304 304 304 304 305 305 306 307 307 307 307 308 308 309 309 309 310 312 313 315 316
309 309 309 309 309 310 311 312 313 314 314 314 314 316 318 318 318 318 318 317 316 314 314 314 315 315 314 314 314 314 313 313 312 311 310 308 306 304 304 304 305 305 305 304 304 303 303 302 302 302 301 301 301 300 299 298 297 298 300 301 302 302 303 303 303 303 303 303 303 304 304 305 306 307 307 307 308 308 309 309 309 309 310 312 314
309 308 309 309 309 310 311 312 312 312 313 314 314 315 315 315 317 319 318 317 316 314 314 315 315 315 314 314 314 314 313 312 311 310 308 306 305 305 305 305 305 305 304 304 303 302 302 302 301 301 301 300 300 300 298 297 297 297 298 299 299 300 301 301 302 302 302 302 302 302 302 303 304 305 306 306 307 307 308 308 308 309 309 309 311
310 310 310 310 309 310 311 312 312 312 312 312 314 314 314 314 316 317 317 316 315 314 315 315 315 315 315 314 314 313 311 310 309 308 306 306 305 305 305 305 305 304 303 302 302 302 301 301 301 300 300 300 300 299 297 296 297 297 297 297 297 297 298 298 299 300 300 301 301 301 301 301 301 302 303 303 304 305 306 307 307 308 309 309 310
310 310 310 310 309 309 310 310 311 311 311 312 313 314 314 314 315 316 316 315 314 314 315 315 315 314 314 313 312 311 310 309 308 306 306 305 305 305 305 305 304 303 303 302 302 301 301 301 301 300 300 299 299 298 297 297 297 297 297 297 297 297 297 297 297 298 298 298 299 299 299 300 300 300 300 301 301 302 303 303 304 306 307 308 309
309 309 310 309 308 308 308 308 309 310 311 312 314 315 314 314 315 315 314 313 313 314 314 314 314 313 312 311 310 309 308 308 306 305 305 304 304 304 304 304 303 303 302 302 301 301 301 300 300 300 299 299 298 297 297 297 297 297 297 297 297 297 297 297 297 296 297 296 297 297 297 298 298 298 299 299 299 300 300 301 301 302 304 306 308
308 309 309 310 310 309 308 308 309 310 312 312 313 314 314 314 314 313 312 312 313 313 312 312 312 311 310 309 309 308 307 306 305 304 304 304 304 304 304 303 303 302 301 301 301 300 300 299 299 299 298 298 297 297 297 296 296 296 296 296 296 296 296 296 296 295 295 295 295 296 296 296 296 297 297 298 298 298 299 299 300 300 301 303 305
308 308 308 309 310 310 310 309 309 310 312 313 314 314 313 312 312 312 312 313 314 313 311 311 311 309 308 308 307 306 305 304 304 304 304 304 304 303 303 303 302 302 301 301 300 299 299 299 298 298 298 297 296 296 296 296 295 295 295 295 295 295 295 295 295 294 294 294 294 295 295 295 295 296 296 297 297 298 298 298 299 299 300 300 302
308 308 308 310 311 310 310 310 310 311 313 315 315 313 311 311 312 313 313 313 313 312 310 310 309 308 308 307 307 305 304 303 303 303 303 303 303 303 303 302 301 301 300 299 299 299 298 298 297 297 297 296 296 295 295 295 294 294 294 294 294 294 294 294 294 294 294 294 294 294 294 295 295 295 296 296 297 297 297 298 298 299 299 299 301
307 307 309 310 311 311 311 311 311 312 313 315 314 312 311 312 312 312 311 311 311 310 309 308 308 308 307 307 305 304 303 302 302 302 302 302 301 301 301 300 300 299 299 299 299 298 297 296 296 296 295 295 295 295 294 294 293 293 294 294 294 294 293 293 293 293 293 293 293 293 293 294 294 295 295 295 296 296 297 297 298 298 299 299 300
307 307 309 310 311 311 312 312 312 312 313 314 313 311 311 311 310 310 310 309 308 308 308 308 307 306 305 304 303 302 302 302 302 301 300 300 300 300 300 299 299 298 298 298 297 295 294 294 294 295 295 295 294 294 294 293 293 293 293 293 293 293 292 292 292 293 293 293 293 293 293 293 294 294 295 295 296 296 296 297 298 298 299 299 299
307 307 309 310 310 311 311 311 311 312 312 312 311 310 310 310 308 308 308 308 307 307 306 306 306 305 304 302 302 301 301 301 300 300 299 299 300 299 299 299 298 298 296 295 293 292 292 292 292 293 294 294 294 294 293 293 293 292 292 292 292 292 292 292 292 292 292 292 292 293 293 293 293 294 294 295 296 296 296 296 297 297 297 298 298
307 308 309 310 309 310 310 310 310 310 310 310 309 309 309 309 308 307 307 307 307 306 305 305 304 303 302 302 301 301 300 300 299 299 299 299 299 298 298 298 298 297 295 292 291 291 292 292 292 292 293 294 294 293 293 292 292 292 292 292 292 291 291 291 291 291 292 292 292 292 292 293 293 293 294 295 295 296 296 296 296 297 297 297 298
307 308 309 309 308 309 309 308 307 308 308 308 308 308 308 308 307 307 307 306 306 306 305 305 303 302 301 301 300 300 300 299 299 298 298 298 298 298 298 298 297 296 294 293 292 293 293 292 292 292 293 294 294 293 293 292 291 291 292 292 291 291 291 291 290 291 291 292 292 292 292 293 293 293 294 294 295 295 296 296 296 297 297 297 298
306 307 308 307 307 308 308 307 306 306 307 308 308 308 308 307 306 306 306 306 305 306 305 304 302 301 301 300 300 299 299 298 298 298 298 298 298 298 298 297 297 296 295 295 294 294 293 292 291 292 293 294 293 292 292 292 291 291 292 292 291 291 291 291 290 291 291 292 292 292 293 293 293 293 293 294 295 295 295 295 296 296 297 297 298
305 306 306 306 306 306 306 307 306 306 307 308 308 308 308 306 305 305 306 306 306 305 303 302 301 301 300 299 299 298 298 299 299 299 298 298 298 298 297 297 297 296 295 295 294 294 292 291 291 292 293 293 293 292 292 292 292 292 292 291 291 291 291 291 291 291 292 292 293 293 294 294 294 294 294 294 294 295 295 295 295 296 296 297 298
305 306 306 306 306 305 306 307 307 307 308 307 307 307 307 306 306 306 306 306 305 303 302 301 301 300 299 299 299 299 299 299 299 299 299 298 298 298 297 297 296 296 295 294 294 293 292 290 291 292 293 293 292 292 291 291 291 291 291 291 291 291 291 291 292 292 293 293 294 294 295 295 295 295 295 295 295 295 295 295 296 296 296 297 297
305 305 306 306 306 306 306 306 307 307 308 307 307 307 306 306 306 306 306 305 303 302 301 301 300 299 299 299 299 299 299 299 299 299 299 298 298 298 297 297 296 295 294 293 294 294 293 291 291 292 292 292 291 291 291 291 291 291 291 290 290 290 291 291 292 293 293 294 295 295 295 296 296 297 297 296 296 296 296 296 297 297 297 297 298
304 305 306 306 307 307 306 306 306 307 307 307 307 306 306 306 306 306 306 304 302 301 301 300 300 300 299 299 299 299 300 300 299 299 299 299 298 297 297 297 296 294 293 293 294 294 293 291 291 292 292 291 291 290 290 290 290 290 290 290 290 290 291 291 292 293 294 295 295 295 295 296 297 297 298 298 297 297 297 297 298 298 298 298 299
304 305 306 306 307 307 307 307 307 306 307 306 306 306 306 306 306 305 304 302 301 301 301 300 300 300 300 300 300 300 300 300 299 300 299 299 298 297 296 296 295 293 293 294 294 294 293 291 291 292 292 291 291 290 290 291 291 290 290 290 290 290 291 291 293 294 294 294 295 295 296 297 298 298 298 298 299 299 299 299 299 299 299 299 299
305 306 306 306 307 307 307 307 307 306 306 306 305 306 306 305 305 304 302 301 301 301 301 300 300 300 300 300 300 300 300 300 300 300 299 299 298 298 297 297 295 293 293 294 294 294 293 291 290 292 292 291 291 291 291 291 291 291 290 290 290 291 292 293 294 295 295 295 296 297 298 298 299 299 299 299 299 299 300 300 301 301 301 300 300
305 305 305 306 306 307 307 306 306 306 306 305 305 305 305 305 304 303 302 301 301 301 301 301 301 301 300 300 300 300 300 300 300 300 299 298 298 297 297 297 295 293 293 294 294 293 292 290 290 291 292 291 291 291 291 291 291 290 290 290 291 292 293 294 295 295 295 296 297 298 298 299 300 300 300 300 300 300 301 302 302 302 302 302 301
Wind_Speed
32 35 36 35 33 30 28 25 22 19 17 15 13 13 13 14 14 13 14 14 14 14 13 13 10 6 6 5 2 3 4 6 7 4 2 2 6 7 7 8 9 9 9 10 11 12 14 15 16 16 17 17 16 15 17 18 18 18 19 19 19 18 17 17 18 19 18 18 18 17 13 12 16 16 13 14 17 18 20 22 22 21 20 21 21
33 36 37 36 34 32 30 27 25 22 21 19 16 15 15 14 13 12 13 13 12 13 14 13 9 6 6 5 1 1 2 6 7 7 7 4 3 5 8 10 9 8 8 8 8 9 11 13 14 15 15 15 14 14 17 20 20 21 21 21 21 20 19 20 20 20 20 19 18 18 16 12 14 16 15 14 16 18 21 23 23 23 23 21 20
33 38 39 37 35 34 33 30 26 23 22 21 19 17 17 16 14 13 12 12 10 12 13 12 9 6 6 5 1 0 1 5 9 10 10 9 7 2 4 6 7 7 7 7 7 7 8 10 11 11 12 11 12 14 16 19 19 19 21 22 22 21 20 20 21 21 21 20 18 18 17 14 15 17 17 17 18 18 21 24 24 24 26 25 23
28 38 40 37 37 36 35 32 28 26 24 22 22 20 19 17 16 15 13 12 10 12 14 12 10 8 7 5 2 2 3 5 9 10 11 12 10 7 6 5 3 6 8 8 8 9 10 10 10 10 10 9 9 11 13 15 15 15 17 19 21 23 23 22 22 22 22 20 18 16 17 16 17 18 18 19 19 18 18 22 24 25 26 28 28
23 35 41 39 38 38 36 34 30 27 25 24 24 22 20 19 17 16 15 14 12 12 12 11 10 8 7 6 4 4 3 4 6 7 9 10 11 10 10 9 5 2 6 8 9 11 12 11 11 11 11 11 11 11 12 12 12 12 13 15 18 21 22 23 24 24 24 23 19 16 15 16 18 18 18 18 18 20 20 21 22 24 26 27 29
20 29 40 42 40 39 37 34 31 28 25 25 25 23 21 20 18 17 16 15 14 13 11 10 9 8 7 7 4 4 3 3 2 4 6 8 10 10 11 10 8 6 2 2 6 9 12 13 13 12 12 11 12 13 14 14 13 12 11 12 15 16 17 20 24 26 25 25 24 22 20 19 19 16 15 15 15 19 21 23 24 23 24 26 28
18 21 33 42 40 39 38 35 32 28 25 25 26 25 23 21 20 18 17 16 16 15 12 11 10 8 8 7 5 4 5 4 2 3 3 5 7 9 10 11 11 10 9 6 3 3 6 10 12 13 13 12 13 13 14 15 14 12 11 11 12 13 14 18 22 23 23 25 27 27 26 26 25 20 16 12 11 14 17 20 24 25 25 27 29
20 17 26 39 42 40 39 36 32 27 26 27 27 27 26 24 23 20 18 17 17 16 14 13 12 10 9 8 7 8 7 6 5 3 2 4 6 7 9 11 11 11 10 9 8 6 4 4 6 8 11 13 14 14 15 15 16 15 14 13 13 13 14 16 19 19 20 24 26 27 28 30 31 29 24 19 16 17 17 17 19 23 26 28 29
26 21 22 32 39 41 39 35 32 29 27 27 26 27 27 26 25 23 21 19 17 16 15 14 13 11 11 9 10 11 10 9 7 5 3 3 4 5 7 9 9 9 8 8 8 7 6 6 6 5 6 7 10 12 14 15 16 18 18 17 16 16 16 17 18 19 20 21 22 23 26 28 30 32 30 30 29 27 24 22 19 18 23 28 30
30 27 25 27 32 38 38 34 33 32 29 26 25 26 27 27 27 25 24 21 18 17 16 15 14 13 12 11 12 12 11 10 9 7 5 3 3 3 5 7 8 9 8 8 8 8 7 8 8 8 8 7 7 8 10 12 15 17 19 20 20 20 20 20 20 20 21 22 21 21 23 25 27 29 30 33 35 34 32 31 27 21 21 25 28
31 28 26 27 29 33 36 34 32 31 28 26 26 26 27 28 28 27 25 23 20 19 17 16 15 15 13 12 12 12 11 11 10 8 7 6 5 4 5 6 7 8 9 9 9 9 10 10 11 11 11 11 10 10 10 11 12 14 17 20 22 23 23 23 23 23 22 23 23 22 24 25 25 27 28 30 34 36 36 36 34 28 23 21 22
30 29 28 30 31 33 35 34 32 30 29 28 27 28 28 29 29 29 27 24 22 20 18 18 17 16 15 13 13 13 12 12 11 9 9 9 7 6 5 6 6 7 9 10 10 11 12 12 13 13 14 13 13 14 14 14 14 14 15 18 21 24 25 25 26 26 25 25 24 24 25 26 26 26 27 27 30 33 33 34 36 33 29 27 22
28 31 30 30 31 33 34 33 32 31 30 30 28 29 29 30 31 30 29 26 23 21 20 20 19 17 16 15 14 14 14 13 12 12 12 11 9 7 7 6 6 7 8 9 10 11 12 13 14 14 14 15 15 17 18 18 18 17 17 17 19 21 23 25 27 28 27 26 26 26 26 27 27 27 28 28 28 31 31 33 37 35 34 35 30
27 32 32 31 31 33 34 33 33 33 32 31 31 30 31 31 32 32 30 27 25 23 22 21 20 18 17 15 15 15 15 15 14 14 14 13 11 10 9 8 7 7 7 8 10 11 13 14 15 16 16 16 17 18 19 18 18 18 19 19 20 21 23 25 27 28 28 27 27 28 28 28 28 27 28 29 29 31 32 33 35 34 33 36 36
22 30 33 32 33 34 36 35 34 34 34 34 32 32 32 32 33 33 32 29 27 25 24 22 21 20 18 16 15 15 15 15 15 15 15 14 13 12 11 10 9 9 9 10 11 13 14 15 17 17 18 18 19 20 19 18 16 16 17 19 20 21 23 26 28 29 29 28 28 29 30 30 29 28 27 29 30 31 32 33 34 34 32 34 35
19 28 34 35 35 35 36 38 37 36 36 35 34 34 33 33 33 33 32 31 29 27 25 23 22 21 19 17 15 15 15 15 16 17 17 16 15 14 13 12 11 11 11 12 13 14 15 16 17 18 19 20 20 20 20 18 17 16 15 16 19 21 23 25 27 29 30 30 29 29 30 31 32 31 29 28 28 30 31 33 34 35 33 32 33
12 19 27 34 36 35 37 38 37 37 36 35 35 34 34 34 33 33 33 32 30 28 26 24 23 21 20 17 15 14 14 14 15 16 17 18 17 16 14 13 13 13 13 14 15 15 16 17 18 19 20 21 21 21 21 19 18 17 17 17 16 17 21 24 26 27 28 29 29 28 27 30 33 33 33 31 30 29 30 31 33 35 36 35 33
10 8 13 26 35 35 35 36 36 35 35 35 35 34 34 34 33 32 33 32 31 29 27 25 24 22 19 16 14 13 13 13 14 15 17 18 18 17 15 14 14 15 15 16 16 17 18 19 19 20 21 21 22 23 22 21 19 19 19 19 18 16 17 20 23 25 25 25 27 27 26 27 30 32 33 33 32 31 30 31 32 33 35 36 36
17 10 6 17 31 35 34 34 34 34 35 35 35 35 35 34 32 31 31 31 30 29 28 26 24 21 18 15 14 13 13 12 13 15 17 18 18 17 16 16 16 16 17 17 17 18 19 19 20 21 22 22 23 23 23 22 20 20 20 20 20 19 19 19 20 23 25 25 25 27 27 26 25 27 30 32 33 33 32 32 32 31 33 36 38
11 10 9 14 23 30 33 32 33 35 36 35 35 35 35 33 32 31 31 30 30 29 28 26 24 20 17 16 15 14 13 13 13 14 16 17 18 17 17 17 17 17 18 17 18 18 19 20 21 22 22 23 23 23 23 22 21 21 21 21 21 20 21 22 21 20 23 25 24 25 26 26 23 23 26 28 30 31 32 33 33 32 32 34 37
6 4 8 16 20 24 30 33 33 34 35 36 35 34 33 32 31 31 31 30 31 30 28 26 23 20 18 17 16 14 14 14 14 15 16 17 18 18 18 18 18 18 18 18 19 19 20 20 21 22 23 23 24 24 24 23 22 22 21 21 22 22 22 23 23 22 21 22 23 23 24 25 24 23 24 25 27 29 30 31 32 33 33 33 35
3 6 7 5 13 21 28 32 35 36 35 34 34 32 31 30 29 30 31 31 31 30 28 26 23 21 19 18 16 16 15 15 15 16 17 17 18 18 18 18 18 18 18 18 19 19 20 21 22 23 23 24 24 25 24 23 22 23 23 23 22 22 22 22 23 24 23 23 24 25 27 27 26 25 24 23 25 27 28 29 30 31 32 34 34
5 4 9 12 8 12 24 30 33 34 34 32 31 31 30 29 28 29 30 31 31 30 28 26 24 22 20 19 18 17 17 17 17 17 18 18 18 18 18 18 18 18 18 18 19 20 21 22 22 22 23 23 24 24 24 23 22 24 25 25 23 22 23 23 23 24 24 24 25 25 27 28 28 28 27 24 23 24 26 28 29 30 31 32 32
17 9 10 13 13 8 17 29 33 34 33 32 32 31 31 30 29 29 30 30 30 30 28 26 25 23 21 20 19 19 18 18 18 18 19 18 18 18 18 18 18 18 18 18 19 20 21 21 22 23 23 24 24 24 23 23 24 25 26 26 24 23 23 23 24 24 25 25 26 27 27 27 28 29 30 29 26 23 24 26 28 30 31 32 32
23 20 17 16 14 12 10 18 26 31 33 34 33 32 33 33 32 32 31 29 29 30 28 27 25 24 22 21 20 20 20 19 19 19 19 19 18 18 18 17 16 16 17 18 19 20 20 21 22 23 24 24 24 23 23 24 25 27 28 28 26 24 24 25 25 25 25 25 26 27 28 28 28 29 31 31 30 27 26 26 26 27 29 31 32
26 25 25 23 20 19 17 15 18 22 25 30 34 34 35 36 36 35 32 30 30 30 28 27 26 24 23 22 22 22 21 20 19 19 18 18 18 17 16 15 15 15 16 18 19 19 20 21 22 23 24 24 23 23 24 25 26 27 28 28 26 26 26 27 28 28 28 27 26 26 26 27 28 30 30 31 32 31 29 28 28 28 28 29 30
29 26 27 27 25 24 24 23 22 20 20 26 33 36 37 38 37 36 33 31 30 30 28 27 26 24 23 23 22 22 21 20 19 18 18 17 16 15 14 13 14 15 16 17 18 19 20 22 23 23 22 21 20 21 21 22 23 24 25 26 27 27 28 29 28 28 28 29 29 28 27 26 26 28 29 30 31 32 32 31 29 29 30 30 30
28 26 26 27 26 25 27 29 27 21 16 22 30 33 33 35 35 33 32 30 29 28 28 27 26 25 24 23 22 21 20 19 18 17 17 16 15 13 13 13 14 15 16 17 18 20 21 21 21 21 22 22 23 23 24 24 23 22 22 23 25 27 29 30 30 29 29 29 29 29 29 29 27 27 27 28 29 31 33 34 33 30 30 31 30
23 24 24 25 25 23 25 30 33 28 20 21 28 30 29 32 33 31 30 30 29 28 27 27 26 25 24 22 21 21 20 18 17 17 16 15 14 12 13 13 14 15 16 17 19 20 20 21 22 23 25 26 27 28 29 30 30 29 28 27 28 29 31 33 34 34 34 33 32 31 31 30 30 29 28 27 28 29 31 34 36 34 32 31 30
24 25 25 25 26 25 25 27 30 34 31 26 26 28 28 30 32 31 30 30 29 27 27 27 26 26 24 22 21 21 19 18 17 16 15 14 13 12 13 13 14 15 16 18 19 19 20 22 24 26 28 29 31 32 32 33 34 34 35 34 34 34 34 35 37 38 38 38 37 36 35 34 33 32 32 31 31 31 31 32 34 36 37 36 34
28 29 29 30 30 28 26 27 27 30 31 30 29 30 30 28 28 29 28 28 29 26 26 27 27 25 24 23 22 21 19 18 17 16 15 13 12 12 12 13 14 16 17 18 19 20 22 24 26 28 30 32 33 34 35 37 36 33 33 35 37 38 37 37 38 39 40 41 41 40 40 39 38 37 36 35 35 35 35 34 34 36 38 39 39
29 30 30 29 29 28 26 25 25 26 27 30 31 31 31 28 28 29 28 26 26 25 26 27 26 25 24 23 22 21 18 17 16 14 12 11 10 11 12 14 16 17 19 20 21 23 24 26 28 29 31 33 34 37 39 39 36 31 29 30 33 36 38 39 40 41 42 43 43 43 42 42 42 41 41 40 39 38 38 37 37 37 38 40 42
22 24 25 24 26 26 25 24 25 26 25 27 31 32 33 31 29 29 28 26 25 25 27 27 25 25 25 23 22 20 17 16 14 11 10 9 10 12 14 17 18 19 20 21 22 23 25 26 28 29 32 35 37 39 40 38 35 31 30 30 31 33 35 37 39 41 43 44 44 44 44 44 44 43 42 42 42 42 42 41 40 39 39 39 41
20 22 25 26 27 28 29 30 31 29 26 26 30 35 37 35 30 28 28 26 25 26 27 26 25 24 24 22 20 17 15 13 11 9 9 11 12 14 16 18 19 19 20 21 22 24 25 27 29 32 35 38 39 40 39 36 33 31 31 31 32 34 35 36 37 38 40 42 43 44 45 45 45 44 43 43 42 42 43 43 44 43 42 41 40
26 27 29 31 31 31 32 33 33 32 29 26 27 30 31 30 28 27 26 24 25 27 27 25 24 22 20 18 17 14 12 11 10 10 11 12 13 14 16 17 18 18 18 20 22 24 26 29 32 35 37 39 40 40 38 35 33 32 32 32 34 35 37 39 40 40 41 42 42 43 44 44 44 44 43 42 42 42 42 43 45 45 45 45 43
29 30 32 34 35 35 33 32 32 31 28 27 27 29 30 30 28 25 25 25 26 27 25 23 23 21 17 16 15 14 12 10 10 10 10 11 13 14 15 15 15 16 17 20 22 25 28 31 34 36 38 40 40 39 37 35 34 33 34 34 35 36 38 39 40 41 41 42 42 43 44 44 44 43 42 40 40 40 41 43 46 47 47 48 48
32 34 36 36 37 36 35 34 32 28 27 28 28 29 29 30 30 28 29 29 28 26 24 23 23 21 19 18 16 13 10 9 9 10 10 11 12 12 13 14 16 17 19 22 25 27 30 33 35 37 38 39 39 37 35 35 33 31 31 32 32 34 36 38 40 41 41 42 42 42 42 43 43 43 42 40 39 38 40 42 44 46 47 48 50
33 35 36 35 35 36 35 33 29 27 26 27 29 29 26 27 32 34 33 31 28 26 24 23 24 22 20 17 13 10 8 9 10 10 10 10 11 13 15 17 18 19 21 23 25 28 31 33 35 36 37 37 37 35 32 31 30 29 30 30 32 34 37 39 41 42 42 43 44 43 42 42 43 43 41 40 40 39 40 40 41 43 46 48 49
34 34 33 31 32 35 33 29 27 26 26 27 28 27 28 31 33 34 32 30 27 25 24 24 23 21 19 14 11 10 10 10 9 9 9 10 12 14 15 16 17 19 21 24 26 28 30 31 31 32 32 33 33 32 31 29 28 28 29 30 33 36 38 40 40 41 42 42 43 43 42 41 42 42 40 39 38 39 41 41 40 41 44 48 47
35 33 28 25 25 26 24 23 26 28 26 27 27 28 32 33 30 29 29 27 25 24 25 25 23 20 17 12 9 9 8 7 7 7 8 9 10 10 12 14 17 20 22 24 25 26 27 28 29 31 32 32 33 33 32 29 28 27 28 30 33 36 37 38 38 39 41 41 42 42 42 41 41 41 40 38 37 37 40 41 42 43 46 47 44
34 28 24 22 18 13 10 10 17 23 24 27 30 33 34 30 26 26 27 26 25 25 25 25 22 17 13 8 6 6 4 2 3 6 9 10 10 10 14 17 19 21 22 22 23 26 30 33 36 37 37 35 34 34 33 33 32 31 30 31 33 34 35 37 39 40 40 41 41 42 42 41 40 40 40 39 38 38 37 39 43 47 49 47 43
29 21 19 20 17 12 7 6 4 16 23 27 28 31 33 29 26 26 27 27 26 25 23 21 16 11 8 5 4 3 1 3 5 8 9 9 10 12 15 17 19 21 22 21 24 28 32 36 40 42 41 38 36 34 34 33 34 33 32 32 33 35 35 37 40 40 40 40 41 41 42 41 40 40 40 39 39 39 38 39 42 45 46 45 42
19 15 14 13 11 10 6 6 1 12 20 22 22 24 28 29 28 28 29 28 25 23 19 14 9 7 6 5 5 4 3 4 5 7 7 7 9 12 15 17 20 23 24 24 26 29 31 35 41 44 42 39 37 35 34 33 34 34 34 34 35 36 36 36 39 40 41 42 42 43 43 41 39 39 40 40 40 40 40 41 42 41 42 41 41
14 13 10 6 5 5 2 2 0 8 13 16 21 25 28 30 31 31 29 26 22 18 13 10 8 8 8 7 5 3 3 6 8 9 9 8 9 12 16 19 22 24 26 27 28 28 30 36 43 44 43 40 37 36 34 34 34 35 36 36 36 36 36 36 38 40 41 42 44 44 43 41 39 39 39 40 41 41 42 43 42 41 41 39 39
11 8 5 4 4 4 1 4 5 7 9 15 22 28 31 32 31 28 25 21 16 13 11 11 11 11 9 7 4 2 5 9 10 10 10 9 11 14 17 20 22 24 25 27 27 27 31 39 44 44 42 41 38 37 36 35 36 36 37 38 38 37 37 37 38 40 41 41 41 41 40 40 40 40 41 42 43 43 42 42 41 41 41 40 40
7 5 4 4 5 4 8 10 10 10 11 17 23 26 28 28 26 23 20 16 13 13 14 13 11 11 10 5 3 3 6 7 8 11 11 11 13 16 17 20 22 24 25 25 26 26 32 41 45 43 42 42 39 38 38 37 38 39 40 40 40 40 38 37 38 39 39 39 38 38 38 38 39 40 42 45 47 46 44 43 41 40 40 40 41
7 10 9 6 6 6 6 8 11 9 12 20 24 25 26 25 21 18 15 13 12 14 15 12 11 11 8 3 3 5 5 3 8 10 10 12 16 16 17 19 21 23 24 24 25 27 33 42 46 44 42 42 40 39 39 39 40 41 42 42 41 41 40 39 38 37 36 37 37 36 35 35 35 37 39 41 43 44 43 42 40 38 38 38 38
9 10 9 7 6 7 5 10 10 9 15 23 25 26 26 22 18 16 14 12 13 13 12 12 12 10 5 5 6 7 4 3 9 11 10 13 18 17 15 17 21 24 25 24 25 28 33 41 45 44 42 42 41 40 39 40 40 41 41 41 42 41 41 40 38 36 35 35 35 35 34 32 31 32 33 34 36 38 38 38 37 36 35 34 34
11 8 8 9 11 11 8 10 9 11 19 25 26 27 24 20 18 15 13 14 15 13 11 12 13 8 6 9 8 6 2 6 10 11 11 14 18 17 14 16 22 25 24 24 25 28 34 40 43 42 41 41 41 40 39 38 39 40 40 40 40 40 41 39 36 34 33 33 34 34 33 32 30 29 30 30 31 33 35 35 35 34 33 33 35
10 8 7 8 7 7 7 10 12 15 22 26 26 24 21 18 16 14 13 15 16 14 12 13 11 5 8 8 7 4 4 9 12 12 12 15 17 16 14 17 23 25 24 24 26 29 33 39 42 40 39 39 38 38 37 37 38 38 38 38 37 37 36 34 31 29 28 30 31 32 32 31 30 29 30 30 30 31 33 33 31 31 32 34 36
6 7 9 7 3 4 8 11 14 18 24 25 24 22 19 16 15 16 16 15 15 15 14 12 7 5 5 6 5 5 8 10 11 11 13 16 16 15 15 19 24 25 23 23 27 29 32 37 40 40 40 39 37 35 35 36 36 36 36 35 34 33 31 29 26 24 24 26 28 28 28 27 28 29 30 29 29 28 29 28 26 26 29 32 34
Wind_Direction
194 190 189 190 190 193 197 197 198 201 198 193 191 186 179 169 156 145 138 133 131 132 133 135 136 140 137 132 97 35 27 55 60 47 37 276 256 251 250 252 241 224 218 218 223 229 232 234 236 237 236 240 241 227 221 231 234 234 233 231 231 229 224 219 221 229 234 234 228 225 235 246 240 240 249 249 244 237 228 225 230 240 251 259 263
193 187 186 188 188 191 195 198 200 202 199 194 194 192 190 183 171 160 155 152 146 145 149 152 160 159 148 155 115 47 29 48 49 39 36 15 299 255 249 254 253 247 237 226 224 230 235 239 242 245 242 242 249 241 226 225 227 230 233 233 235 235 234 232 232 235 239 241 239 237 241 239 228 231 243 257 263 249 231 224 225 230 238 249 256
192 184 183 187 189 190 193 199 204 206 201 195 195 196 196 194 187 181 176 175 163 156 168 176 184 176 166 177 114 139 159 48 39 33 28 19 16 325 256 261 266 268 258 240 225 223 229 232 232 237 240 239 243 242 235 231 229 230 233 235 238 239 238 236 235 237 239 240 243 245 243 235 226 224 233 250 266 261 238 227 226 226 229 238 248
191 184 183 186 190 190 192 198 203 204 201 196 195 197 202 202 201 197 189 191 182 172 185 194 196 188 178 176 131 179 180 50 34 30 25 22 25 19 11 7 309 264 257 247 231 228 230 230 227 223 221 223 227 232 236 238 239 241 240 238 240 242 242 241 240 240 241 239 241 246 245 241 236 231 238 248 257 259 247 236 233 231 230 231 238
189 185 183 184 191 192 193 197 201 202 202 201 199 201 206 206 207 203 195 197 197 193 197 196 195 192 182 174 154 167 153 58 37 30 26 25 28 24 22 22 10 283 254 249 238 237 238 238 240 235 225 219 217 221 227 232 238 246 249 245 243 244 246 246 245 245 246 243 240 242 240 242 243 242 247 252 249 249 250 246 242 241 238 233 233
204 194 185 185 191 194 192 194 198 202 206 208 204 203 207 209 210 207 201 198 201 208 211 203 202 199 188 181 170 170 155 119 48 19 26 27 29 28 27 28 31 43 41 266 251 249 248 246 247 248 247 238 228 226 227 230 233 236 244 251 252 253 253 253 249 247 248 247 244 243 239 241 246 243 243 248 245 243 246 249 250 248 243 237 236
215 203 189 186 189 191 192 194 198 205 212 212 207 204 206 210 212 212 209 205 206 213 215 211 213 206 195 190 183 187 185 184 237 335 6 15 20 24 25 27 31 39 46 46 24 305 269 257 252 253 257 258 251 242 236 234 233 232 233 244 256 261 262 259 255 253 251 250 248 248 246 245 246 241 235 242 248 239 235 241 249 251 247 240 240
210 198 190 188 189 193 196 197 200 207 214 213 209 207 207 209 213 216 215 213 213 215 213 214 221 216 208 203 189 197 214 224 242 270 305 348 3 8 15 22 26 30 32 34 39 32 3 317 283 267 263 264 264 260 253 246 241 237 232 234 242 251 260 264 263 262 259 254 252 252 252 251 251 249 242 242 253 253 241 236 241 247 248 243 243
212 207 197 192 192 196 199 201 204 209 214 216 215 211 210 210 213 218 220 220 220 219 216 217 223 224 219 209 198 208 223 230 237 246 257 309 340 353 5 11 15 23 23 18 24 32 30 18 360 337 311 289 279 276 272 266 258 251 244 240 240 241 247 256 261 264 264 263 261 258 257 256 256 255 249 244 249 255 253 246 241 244 248 245 244
214 212 206 200 197 198 201 205 207 208 212 218 219 215 213 212 213 217 221 223 225 225 222 222 226 229 225 213 210 219 223 223 235 244 246 267 289 327 347 351 354 1 8 6 4 8 14 13 4 356 349 337 320 305 292 283 275 267 258 251 248 246 246 250 255 258 260 263 266 265 263 261 260 259 254 248 247 249 251 251 250 250 250 246 244
210 206 200 196 197 198 199 202 204 207 211 216 219 218 216 215 215 218 222 225 228 229 228 227 229 235 234 225 222 226 226 227 239 249 252 259 268 295 322 335 344 346 347 348 348 349 352 354 353 349 344 339 333 325 313 301 289 280 273 263 256 252 251 252 254 256 258 261 263 263 263 262 262 262 258 254 251 249 249 250 251 251 251 249 248
205 199 192 187 189 194 196 198 202 206 209 213 218 220 218 216 217 218 221 225 229 231 232 231 230 235 239 236 231 233 237 240 244 248 250 255 264 282 298 309 323 330 332 335 336 337 338 340 340 338 336 332 331 328 322 314 303 290 281 274 267 260 256 255 256 257 260 263 264 264 263 262 262 263 262 260 258 254 253 252 252 253 254 252 249
198 194 190 187 188 192 195 197 201 205 209 213 217 220 218 217 217 218 220 224 229 231 233 234 233 236 240 239 237 239 244 249 246 243 247 253 256 261 269 284 301 313 318 322 323 323 322 323 324 325 326 326 326 324 319 312 302 293 283 274 269 265 261 258 257 257 258 260 263 263 262 263 263 262 260 261 261 258 258 258 256 257 258 255 250
193 194 190 191 194 197 199 200 203 206 209 212 215 217 217 216 217 218 220 224 229 231 233 236 238 239 241 241 243 245 250 253 250 245 248 254 255 258 267 276 282 288 295 300 304 309 312 315 318 320 321 321 319 316 313 307 296 288 282 273 264 260 258 258 259 259 256 254 256 258 260 261 264 263 259 258 258 257 257 259 259 259 258 255 254
192 194 192 195 199 200 202 203 205 207 208 210 212 214 215 215 217 218 219 222 228 232 233 236 239 241 242 244 247 251 255 256 254 251 252 255 257 261 268 275 279 282 287 292 297 303 309 314 318 319 318 317 317 317 315 311 301 291 285 277 268 259 253 252 255 258 258 256 253 255 259 261 262 263 261 260 258 256 254 254 255 255 251 251 253
190 193 195 197 199 202 203 202 204 205 205 207 209 212 215 216 218 218 220 222 227 231 233 236 239 241 243 247 250 252 254 256 255 254 255 257 260 263 266 271 277 282 287 293 297 302 307 311 313 315 315 315 318 321 320 315 308 299 293 284 275 266 259 254 252 253 256 259 257 256 257 261 262 261 262 262 261 260 255 251 250 250 248 249 251
197 200 200 199 198 200 201 199 201 202 203 206 209 213 217 218 219 219 219 222 226 230 233 236 238 241 245 247 249 251 253 255 256 255 255 257 261 263 265 269 275 281 286 292 296 300 305 310 313 313 314 317 320 324 323 319 312 304 300 294 284 275 267 261 259 256 254 257 259 259 258 259 261 261 262 262 261 262 260 255 252 250 249 249 249
228 232 212 202 198 198 199 199 200 203 205 208 211 215 219 221 223 222 220 220 225 229 232 235 238 242 244 243 246 251 254 257 258 257 255 256 260 263 266 269 273 279 285 291 296 301 307 310 312 314 316 320 323 325 324 321 314 308 304 301 295 290 281 270 265 263 260 256 254 256 259 260 261 262 264 264 263 263 263 262 259 254 252 251 250
231 235 213 199 198 197 198 200 202 205 207 209 212 216 219 222 226 227 225 224 226 230 231 234 239 241 240 240 244 249 253 257 258 258 258 259 261 264 266 269 272 277 283 290 297 303 307 310 312 316 320 323 323 322 322 319 312 304 300 300 298 296 293 286 276 267 263 260 256 254 256 259 263 265 266 267 266 264 264 265 265 262 258 254 252
245 224 197 191 198 201 202 205 207 207 208 209 212 216 219 224 227 228 227 225 226 229 231 235 238 237 236 238 243 247 254 259 259 259 260 260 261 262 265 268 271 278 284 291 298 302 307 311 315 319 322 322 320 318 317 315 310 301 293 290 291 291 290 290 287 278 267 262 262 262 259 257 260 268 271 270 270 268 267 266 266 266 262 258 256
318 296 223 198 200 207 207 209 212 210 209 210 213 218 222 226 228 228 226 223 224 227 232 235 234 231 234 240 245 251 257 261 261 260 258 256 258 259 262 267 271 278 285 292 299 304 310 315 318 321 321 320 317 316 314 311 309 305 295 284 282 284 287 288 289 287 277 266 261 263 262 256 253 261 270 272 273 273 272 270 268 267 265 263 262
308 332 320 234 209 215 212 210 210 210 211 213 215 220 223 226 228 230 228 225 225 228 232 232 230 230 237 243 249 254 258 261 262 263 260 256 255 256 260 266 271 278 286 293 300 307 313 318 319 319 318 316 314 312 311 308 304 302 298 289 281 279 280 284 287 287 285 279 269 263 261 257 251 252 259 266 272 274 273 272 272 270 268 265 264
335 280 317 336 322 240 221 214 212 212 214 215 216 219 221 223 226 229 229 228 228 229 230 230 231 234 239 245 250 254 257 258 260 262 262 259 258 259 262 267 274 282 289 297 305 312 316 318 317 315 313 311 310 310 308 306 301 298 297 292 286 281 278 278 280 282 284 285 282 276 270 264 257 253 251 255 264 272 273 272 271 272 271 269 267
351 323 292 306 324 295 226 216 214 213 212 212 213 217 219 220 224 229 230 228 227 226 227 230 233 236 240 245 249 252 253 254 257 260 261 261 261 262 265 270 277 285 294 302 310 314 315 313 312 311 310 309 310 309 306 302 298 296 295 291 287 284 280 278 277 278 280 283 283 282 279 275 269 262 255 253 254 261 268 271 272 271 270 270 270
337 333 321 305 303 305 263 223 215 212 211 212 213 217 220 221 224 228 228 225 223 224 227 230 233 236 239 243 246 248 249 250 253 255 257 259 262 264 267 273 280 289 298 306 311 312 310 309 308 307 307 307 306 304 301 297 295 295 294 292 287 283 280 278 275 273 276 279 280 281 281 280 278 273 264 257 254 255 260 266 270 272 271 270 269
319 314 313 309 301 295 287 263 236 226 223 222 219 219 221 222 224 227 226 223 222 223 226 229 232 235 238 241 244 245 245 246 249 252 255 257 261 265 269 276 286 295 302 306 307 307 306 304 303 302 302 302 300 298 297 296 297 297 298 297 293 288 285 281 277 272 271 273 275 278 280 280 279 279 275 267 259 255 256 261 266 269 270 270 267
309 306 302 301 300 294 287 276 261 247 240 232 224 219 218 218 220 223 223 220 220 222 224 228 231 233 237 240 241 241 242 244 247 250 253 257 261 265 272 281 291 298 301 302 301 301 300 298 298 299 298 296 294 293 294 295 298 299 301 301 297 293 290 286 283 278 274 272 271 271 274 275 276 279 281 278 270 262 257 257 261 266 268 270 270
296 297 296 295 297 295 287 278 268 256 242 230 222 216 216 220 220 221 223 221 219 223 225 227 230 233 236 239 238 238 238 240 244 248 252 257 261 267 277 287 295 297 298 298 298 297 297 297 297 295 291 288 286 287 288 288 289 291 292 292 290 288 287 285 283 280 276 272 269 267 266 266 269 272 276 279 277 272 265 258 256 259 263 265 268
302 302 299 297 303 307 301 288 273 258 248 233 222 218 221 227 226 223 226 227 223 224 225 226 229 233 235 236 233 233 234 235 240 243 247 255 261 272 283 289 295 296 295 296 296 296 296 294 292 288 287 287 288 288 289 287 284 281 279 278 278 278 279 279 277 276 274 271 268 266 263 262 262 263 264 265 267 269 269 264 258 256 258 260 261
326 322 316 311 316 323 322 309 283 262 251 241 230 221 217 222 227 226 226 226 223 222 223 225 228 231 233 231 229 229 230 231 235 238 245 255 264 276 287 292 295 294 293 294 293 292 292 289 288 288 288 290 292 294 296 295 291 284 278 275 275 275 274 274 275 275 274 272 269 266 263 261 260 259 259 258 258 259 262 264 262 258 258 260 260
322 321 320 317 317 319 319 316 301 278 260 246 233 221 214 217 225 224 222 221 220 220 221 223 225 226 226 225 225 226 226 227 229 235 244 256 269 282 291 293 290 287 287 289 289 287 288 288 289 290 291 293 296 299 303 305 302 293 282 276 274 273 273 272 273 274 274 275 273 271 267 264 261 259 259 258 258 257 256 258 261 259 257 258 261
315 314 315 313 312 315 316 313 307 298 281 258 238 222 213 215 217 215 215 217 218 219 221 219 219 220 219 219 220 219 219 222 227 237 249 264 278 286 288 284 280 281 285 288 288 288 289 290 291 291 293 296 299 301 305 308 306 301 294 287 281 278 276 273 272 273 273 275 276 276 274 271 267 263 261 260 260 259 257 256 257 257 255 253 254
314 311 311 307 303 304 308 309 305 303 298 278 257 238 223 216 212 210 212 217 218 219 218 213 211 212 212 212 214 215 217 224 232 244 258 271 279 277 277 276 277 283 289 291 291 290 290 290 290 292 295 298 301 304 307 309 307 303 300 297 293 289 285 280 277 275 274 275 275 277 277 276 274 271 268 266 264 263 261 259 257 257 256 253 250
323 316 312 309 304 297 294 298 299 298 299 289 267 247 229 217 207 203 206 211 215 215 212 208 205 207 209 210 213 216 219 225 234 247 259 269 273 272 274 276 281 288 292 293 292 290 289 290 292 296 300 301 304 307 309 307 303 300 298 296 294 292 290 287 284 281 279 277 277 278 278 277 276 275 273 272 270 269 267 264 261 258 256 256 254
326 323 317 311 309 304 295 293 293 293 295 286 259 235 217 202 193 194 200 206 211 211 207 204 202 203 205 206 207 208 212 221 235 252 264 270 271 272 275 280 286 292 293 292 290 289 291 295 299 302 303 304 306 308 308 304 298 296 295 292 290 288 287 286 285 284 283 281 280 279 279 278 277 276 274 273 271 271 270 268 266 262 257 254 254
324 320 316 311 308 305 299 293 290 288 288 278 251 226 212 201 194 195 197 198 201 203 201 199 197 195 193 193 193 197 207 224 244 257 266 269 270 274 278 281 286 289 290 291 292 295 299 301 302 304 304 305 307 306 304 300 295 292 291 290 289 288 287 287 287 287 286 285 283 281 279 278 277 276 275 274 273 272 270 268 267 265 261 257 253
317 313 311 308 305 303 299 295 290 283 279 268 239 213 203 200 196 192 189 188 192 196 195 195 192 188 186 188 192 200 215 236 249 251 256 262 265 271 275 279 284 287 290 293 296 299 302 302 304 306 307 307 306 303 300 298 296 294 292 292 292 291 290 290 290 290 289 287 285 283 281 279 277 275 274 272 273 272 270 268 267 266 265 262 256
311 312 312 310 306 303 300 295 288 277 266 248 219 197 189 189 188 186 184 183 185 188 189 190 188 187 189 192 197 209 224 232 237 242 249 257 265 274 281 286 289 290 293 296 299 301 303 305 307 307 306 305 303 301 300 299 298 296 293 292 291 290 290 290 290 290 288 286 285 283 281 279 277 276 274 270 269 269 267 267 267 266 265 263 260
308 312 315 313 306 302 301 296 284 268 246 226 212 200 192 186 183 181 179 175 175 179 185 185 184 184 187 190 198 211 220 227 239 252 264 275 284 288 290 291 291 293 297 299 302 305 309 311 312 311 310 309 308 308 306 302 298 294 291 289 288 288 288 290 292 292 290 288 286 283 280 278 277 276 275 272 269 265 263 262 263 263 263 262 262
310 310 311 310 303 300 303 292 272 257 236 219 212 199 186 180 176 172 168 165 164 169 175 176 174 173 176 182 195 211 224 239 257 279 298 311 315 308 298 296 297 302 306 306 308 316 324 329 330 329 326 322 319 316 314 310 304 298 292 289 288 288 290 293 296 297 295 291 288 285 282 278 277 276 276 275 272 267 262 259 257 257 257 259 262
309 306 302 302 297 296 316 296 252 232 208 193 189 180 173 172 172 168 165 165 166 166 164 164 164 165 169 178 195 210 226 259 312 334 342 341 331 313 304 303 306 311 315 315 320 329 337 339 340 337 333 328 323 318 315 312 308 304 300 297 296 295 297 298 299 298 295 292 289 287 283 279 276 275 275 274 273 270 265 259 254 253 254 257 261
308 303 292 291 284 275 308 346 206 183 168 163 166 163 160 161 165 166 166 166 166 164 161 159 159 161 169 179 178 165 96 37 9 355 349 336 316 306 306 308 314 321 324 325 330 335 336 336 337 335 332 329 325 319 314 311 308 307 307 305 303 302 301 300 298 296 294 292 290 288 286 283 278 275 273 273 271 270 268 263 257 255 255 257 259
302 293 284 282 268 252 281 330 107 142 141 148 159 161 160 161 161 162 163 161 156 156 158 158 156 156 153 140 124 108 78 45 23 10 360 340 317 311 313 317 324 330 331 332 334 334 333 332 333 332 330 328 325 320 316 313 311 311 312 310 306 304 302 300 297 295 295 294 292 291 289 286 281 275 272 271 270 268 266 264 262 259 257 257 258
296 281 270 262 231 185 163 312 183 130 140 161 172 169 165 160 156 155 157 156 152 154 159 157 149 142 134 131 137 138 77 55 42 26 12 352 327 320 323 326 331 334 333 334 335 333 333 335 334 332 330 329 326 323 319 317 316 315 313 312 309 306 305 302 298 296 295 294 293 291 289 286 281 274 268 267 267 266 265 264 264 261 259 258 257
311 278 239 230 210 156 154 261 217 171 177 183 176 169 160 152 149 149 150 150 151 151 147 142 140 138 136 142 157 130 69 62 43 18 4 351 335 331 332 333 335 335 334 334 333 332 334 338 337 334 331 330 328 325 323 321 320 319 316 315 313 310 307 304 300 298 297 295 292 291 288 285 279 271 264 260 259 260 261 261 261 259 258 256 254
342 331 315 265 240 273 292 260 215 193 189 178 171 166 157 147 145 147 149 149 145 138 135 136 142 148 149 144 116 93 91 71 27 5 1 355 344 338 337 337 337 338 336 334 329 329 335 340 339 336 333 332 330 327 326 324 323 322 319 317 314 311 308 306 303 301 299 296 294 292 288 283 277 271 265 261 258 258 258 258 258 257 254 251 248
329 328 322 283 251 290 287 213 187 186 182 173 169 165 156 149 147 151 155 149 135 133 139 143 153 160 158 126 85 111 121 69 5 356 357 358 351 343 337 337 338 340 340 334 327 329 337 341 340 338 336 334 331 329 327 326 324 322 318 316 313 311 309 308 306 303 301 299 297 295 290 283 276 270 266 262 260 259 258 257 256 255 250 246 245
319 321 312 295 291 295 239 182 178 180 172 168 164 158 154 154 154 157 158 144 131 135 143 150 163 170 147 91 103 126 133 6 350 346 344 351 353 348 339 338 342 344 344 336 329 332 339 341 341 341 339 336 332 330 328 326 323 319 316 314 312 310 309 309 306 304 302 299 297 295 291 285 276 268 262 259 257 256 254 252 251 249 246 244 245
303 308 303 305 302 287 237 186 173 168 161 158 154 151 153 156 153 147 138 132 135 138 142 159 173 165 94 88 115 131 91 356 351 343 336 343 351 352 347 344 347 349 348 340 335 336 339 340 342 344 342 337 332 328 327 325 321 318 316 313 311 309 309 307 305 303 300 297 294 294 290 283 274 265 259 256 255 254 253 251 248 244 240 240 244
281 269 288 318 317 277 223 179 166 160 153 150 148 149 152 155 149 132 121 133 144 143 141 156 166 131 74 91 120 110 16 357 350 343 342 348 353 354 351 346 348 351 349 343 340 339 339 341 345 346 345 340 333 328 327 325 322 319 317 315 313 312 310 308 306 302 297 294 293 293 289 281 272 264 259 257 257 255 252 249 244 241 239 238 240
279 272 303 331 337 232 200 172 162 156 148 144 145 148 151 150 138 121 118 131 146 150 146 142 130 77 74 108 106 42 6 355 350 349 352 355 354 353 348 345 348 352 350 344 343 341 340 344 349 349 348 345 340 334 330 328 325 323 322 320 319 319 317 315 313 306 298 298 298 294 289 282 273 266 262 260 258 254 249 244 240 239 239 238 240